Current weather by "City, St" or "zip code"  
 
Advertise Here

Current Conditions: Doylestown, Doylestown Airport, PA

Overcast


52.0 F

Last Updated on Apr 18 2019, 5:54 am EDT
Humidity: 64%
Wind Speed: N 0.0 mph
Barometer 30.09 in
Dewpoint: 39.9 F
Visibility: 10.00 mi
Precip: --
Heat Index: NA
Wind Chill: NA
Current conditions at:

Doylestown, Doylestown Airport, PA (KDYL)

Lat: 40.33 Lon: 75.122

Local Radar Image active severe weather and emergency alerts image image weather storm and storm spotter reports image weather observation monitoring service image
Local
Radar
Active
Alerts
Storm Reports Obs
Monitoring

iAlert Weather and Emergency Alert Notification Services:


ialert severe weather and emergency alerts by text message and email ialert daily weather forecast by email and text message service ialert real-time weather-observation monitoring and alert notification service ialert storm report monitoring alert notification

Observation History for Doylestown, Doylestown Airport, PA


Time Wind
(mph)
Vis
(mi)
Weather Precip (in) Temperature (F) Relative
Humidity
Wind
Chill
(°F)
Heat
Index
(°F)
Pressure
Air Dwpt altimeter
(in)
sea level
(mb)
5:54 am EDT N 0.0 10.00 Overcast -- 52.0 39.9 64% NA NA 30.09 1019.0
4:54 am EDT N 0.0 10.00 Overcast -- 51.0 39.9 66% NA NA 30.11 1019.5
3:54 am EDT N 0.0 10.00 Overcast -- 50.0 39.9 68% NA NA 30.12 1020.2
2:54 am EDT N 0.0 10.00 Mostly Cloudy -- 50.0 37.9 63% NA NA 30.14 1020.6
1:54 am EDT N 0.0 10.00 Partly Cloudy -- 49.0 36.0 61% NA NA 30.16 1021.2
12:54 am EDT N 0.0 10.00 Overcast -- 50.0 35.1 57% NA NA 30.17 1021.6
11:54 pm EDT SE 3.5 10.00 Overcast -- 50.0 34.0 54% NA NA 30.18 1022.1
10:54 pm EDT N 0.0 10.00 Overcast -- 51.0 30.0 45% NA NA 30.17 1021.6
9:54 pm EDT 3.5 10.00 Mostly Cloudy -- 51.0 27.0 39% NA NA 30.16 1021.6
8:54 pm EDT SE 3.5 10.00 Overcast -- 53.0 25.0 34% NA NA 30.15 1021.3
7:54 pm EDT 3.5 10.00 Overcast -- 53.0 24.1 32% NA NA 30.14 1020.9
6:54 pm EDT SE 6.9 10.00 Overcast -- 55.0 28.0 36% 53 NA 30.14 1020.7
5:54 pm EDT 4.6 10.00 Overcast -- 58.0 33.1 39% 58 NA 30.12 1020.0
4:54 pm EDT SE 4.6 10.00 Overcast -- 58.0 35.1 42% 58 NA 30.12 1020.0
3:54 pm EDT S 9.2 10.00 Overcast Trace 58.0 35.1 42% 56 NA 30.12 1020.0
2:54 pm EDT 3.5 10.00 Light Rain Trace 60.0 35.1 39% NA NA 30.14 1020.6
1:54 pm EDT 3.5 10.00 Overcast -- 60.0 35.1 39% NA NA 30.15 1020.9
12:54 pm EDT NE 5.8 10.00 Overcast -- 60.0 32.0 35% 60 NA 30.15 1021.0
11:54 am EDT N 0.0 10.00 Mostly Cloudy -- 58.0 33.1 39% NA NA 30.16 1021.2
10:54 am EDT NE 5.8 10.00 Partly Cloudy -- 58.0 34.0 41% 57 NA 30.15 1021.0
9:54 am EDT N 0.0 10.00 Mostly Cloudy -- 55.0 37.0 51% NA NA 30.14 1020.6
8:54 am EDT 5.8 10.00 Mostly Cloudy -- 52.0 37.0 57% 50 NA 30.14 1020.8
7:54 am EDT N 0.0 10.00 Overcast -- 50.0 37.9 63% NA NA 30.14 1020.7
6:54 am EDT NE 3.5 10.00 Overcast -- 49.0 37.9 66% NA NA 30.10 1019.5

Regional Weather Observation


Allentown, Lehigh Valley International Airport, PA (KABE)

Overcast
53.0 F

Allentown Queen City Municipal Airport, PA (KXLL)

Overcast
52.0 F

Doylestown, Doylestown Airport, PA (KDYL)

Overcast
52.0 F

Pottstown, Pottstown Limerick Airport, PA (KPTW)

Overcast
51.0 F

Philadelphia, Northeast Philadelphia Airport, PA (KPNE)

Overcast
55.0 F

Reading, Reading Regional Airport, PA (KRDG)

Overcast
53.0 F
Advertise Here

Advertise Here